Regional Weather Roundup
Issued by NWS Cleveland, OH

Home | Current Version | Previous Version | Graphics & Text | Print | Product List | Glossary On
Versions: 1 2 3 4 5 6 7 8 9 10 11 12 13 14 15 16 17 18 19 20 21 22 23 24 25 26 27 28 29 30 31 32 33 34 35 36 37 38 39 40 41 42 43 44 45 46 47 48 49 50
000
ASUS41 KCLE 202102
RWRCLE
OHIO REGIONAL WEATHER ROUNDUP
NATIONAL WEATHER SERVICE CLEVELAND, OH
500 PM EDT WED SEP 20 2017

NOTE: "FAIR" INDICATES FEW OR NO CLOUDS BELOW 12,000 FEET WITH NO
SIGNIFICANT WEATHER AND/OR OBSTRUCTIONS TO VISIBILITY.

OHZ001>008-015>018-024>027-034-035-043-044-202200-
   NORTHWEST OHIO

CITY           SKY/WX    TMP DP  RH WIND       PRES   REMARKS
DEFIANCE       SUNNY     83  66  56 W5        29.97F
FINDLAY        CLOUDY    84  62  47 W8        29.98S
TOLEDO EXPRESS MOSUNNY   84  66  54 W7        29.97F
TOLEDO EXEC    MOSUNNY   81  70  69 E7        29.98S
LIMA           MOSUNNY   83  66  56 W9        30.00R
$$

OHZ009>014-019>023-028>033-038-089-202200-
   NORTHEAST OHIO

CITY           SKY/WX    TMP DP  RH WIND       PRES   REMARKS
CLE-HOPKINS    MOSUNNY   84  65  52 N9        30.01S
CLE-LAKEFRONT  MOSUNNY   75  67  76 NE7       29.99S
CUY CO. ARPT   PTSUNNY   81  64  57 NE9       30.01S
LORAIN-ELYRIA  MOSUNNY   82  62  50 VRB5      29.99F
ASHTABULA      SUNNY     82  67  60 N8        30.01S
AKRON-CANTON   PTSUNNY   86  63  45 W7        30.01S
WOOSTER        MOSUNNY   82  62  50 CALM      30.01S
MANSFIELD      MOSUNNY   80  63  55 S3        30.02S
YOUNGSTOWN     MOSUNNY   81  64  56 NE8       30.00S
$$

OHZ042-051>053-060>062-070>072-077>081-202200-
  SOUTHWEST OHIO

CITY           SKY/WX    TMP DP  RH WIND       PRES   REMARKS
CINC-COVINGTON CLOUDY    84  69  60 W7        30.00F
CINC-LUNKEN    MOSUNNY   84  70  62 S7        29.99F
HAMILTON       SUNNY     86  67  52 W9        30.00S
DAYTON         PTSUNNY   81  67  62 SW7       30.01S
WRIGHT-PAT AFB PTSUNNY   85  66  52 SW8       29.99F
DAYTON GENERAL MOSUNNY   85  63  47 VRB5      30.00S
WILMINGTON     MOSUNNY   82  67  60 SW7       30.00F
$$

OHZ036-037-039>041-045>050-054>059-063>069-073>076-082>088-202200-
  CENTRAL AND SOUTHEAST OHIO

CITY           SKY/WX    TMP DP  RH WIND       PRES   REMARKS
COLUMBUS       CLOUDY    82  67  60 SW6       29.99S
OSU AIRPORT    PTSUNNY   77  70  79 CALM      30.00S
BOLTON FIELD   PTSUNNY   81  68  65 W6        30.01S
RICKENBACK AFB CLOUDY    82  65  54 CALM      29.99S
NEWARK         PTSUNNY   82  65  56 SW6       29.99S
MARION         PTSUNNY   82  64  54 VRB3      30.00S
LANCASTER      MOSUNNY   81  66  60 W3        30.00S
ZANESVILLE     MOSUNNY   82  66  58 CALM      30.01S
NEW PHILLY     NOT AVBL
$$



USA.gov is the U.S. government's official web portal to all federal, state and local government web resources and services.